[[{"header":{"parameterUnit":"m.s-1","parameterCategory":1,"la1":30.2991,"la2":30.254,"lo1":-89.0895,"lo2":-89.0444,"dy":0.0017,"dx":0.0017,"nx":28,"ny":28,"refTime":"2023-08-28T09:00:00:Z","depth":0,"parameterNumber":2,"parameterNumberName":"U-component_of_WINDS"},"data":[0,0,0,0,0,0,0,0,0,0,0,0,0,0,0,0,0,0,0,0,0,0,0,0,0,0,0,0,0,0,0,0,0,0,0,0,0,0,0,0,0,0,0,0,0,0,0,0,0,0,0,0,0,0,0,0,0,0,-0.7624,-0.7625,0,-0.7673,-0.7673,-0.7674,-0.761,-0.7608,-0.7606,-0.7604,-0.7655,-0.7658,-0.7662,0,0,0,0,0,0,0,0,0,0,0,0,0,-0.7478,-0.7481,-0.7624,-0.7625,-0.7626,-0.7672,-0.7673,-0.7674,-0.7611,-0.7608,-0.7605,-0.7602,-0.7654,-0.7658,-0.7662,0,0,0,0,0,0,0,0,0,0,0,0,0,-0.7535,-0.7482,-0.7624,-0.76,-0.7598,-0.7672,-0.7673,-0.7674,-0.7611,-0.7608,-0.7604,-0.7601,-0.7652,-0.7657,-0.7663,-0.7764,0,0,-0.7679,-0.7681,0,0,0,0,0,0,0,0,-0.7532,-0.7541,-0.7603,-0.7602,-0.76,-0.7632,-0.764,-0.7704,-0.7612,-0.7606,-0.7603,-0.7599,-0.765,-0.7655,-0.7672,-0.7766,-0.7769,-0.7679,-0.7682,-0.7685,-0.7686,0,0,0,0,0,0,0,-0.7528,-0.7538,-0.7643,-0.7604,-0.7602,-0.7586,-0.7591,-0.7652,-0.7647,-0.7607,-0.7602,-0.7608,-0.7649,-0.7667,-0.7673,-0.7769,-0.7679,-0.7684,-0.7687,-0.7689,-0.7947,-0.7951,0,0,0,0,0,0,-0.7527,-0.7535,-0.7642,-0.7645,-0.7557,-0.7592,-0.7596,-0.7625,-0.7646,-0.7646,-0.7611,-0.7605,-0.766,-0.7667,-0.7674,-0.7794,-0.7685,-0.7689,-0.7692,-0.7943,-0.7948,-0.7952,0,0,0,0,0,0,-0.7524,-0.7537,-0.764,-0.7589,-0.7601,-0.7598,-0.763,-0.7628,-0.7646,-0.765,-0.7649,-0.7631,-0.7657,-0.7667,-0.7741,-0.7795,-0.7692,-0.7697,-0.7939,-0.7945,-0.795,-0.8034,0,0,0,0,0,0,-0.752,-0.7536,-0.7575,-0.759,-0.7604,-0.7707,-0.7634,-0.7631,-0.7655,-0.7648,-0.7668,-0.7668,-0.7655,-0.7734,-0.7747,-0.78,-0.7701,-0.7934,-0.7942,-0.7948,-0.8026,-0.8042,-0.8055,0,0,0,0,0,-0.7515,-0.7598,-0.7578,-0.7591,-0.7652,-0.771,-0.7718,-0.7701,-0.766,-0.7699,-0.77,-0.7668,-0.7786,-0.7742,-0.7756,-0.7812,-0.7931,-0.7939,-0.7948,-0.802,-0.8039,-0.8054,0,0,0,0,0,0,-0.7591,-0.76,-0.7577,-0.7667,-0.7688,-0.7699,-0.7748,-0.7721,-0.7755,-0.7747,-0.7725,-0.773,-0.781,-0.7818,-0.7769,-0.791,-0.7852,-0.7863,-0.7902,-0.792,-0.7934,-0.7931,-0.7705,0,0,0,0,0,-0.7618,-0.7664,-0.7669,-0.7748,-0.7759,-0.7752,-0.7777,-0.7761,-0.7783,-0.7792,-0.7799,-0.7821,-0.7863,-0.7891,-0.793,-0.8026,-0.8029,-0.8071,-0.8085,-0.8097,-0.8108,-0.8157,-0.8176,-0.7979,-0.7979,-0.7979,0,0,-0.7675,-0.7685,-0.7716,-0.7763,-0.7778,-0.7826,-0.776,-0.7815,-0.785,-0.78,-0.7871,-0.7877,-0.79,-0.7985,-0.8023,-0.7994,-0.8162,-0.8107,-0.8116,-0.8121,-0.8168,-0.8187,-0.8203,-0.7985,-0.7984,-0.7983,0,0,-0.7803,-0.7816,-0.7882,-0.7897,-0.7919,-0.7913,-0.7929,-0.7943,-0.7945,-0.8015,-0.7978,-0.802,-0.8093,-0.811,-0.8129,-0.826,-0.8231,-0.8273,-0.8348,-0.8397,-0.8412,-0.8426,-0.8473,-0.849,-0.8283,-0.8283,-0.8284,0,-0.7872,-0.7943,-0.792,-0.7976,-0.7998,-0.7953,-0.802,-0.8035,-0.807,-0.8086,-0.8052,-0.8141,-0.8154,-0.8242,-0.8274,-0.829,-0.8307,-0.8272,-0.8412,-0.8425,-0.8438,-0.8482,-0.85,-0.8288,-0.8288,-0.8287,-0.8287,0,-0.8025,-0.8075,-0.8126,-0.8159,-0.8185,-0.8247,-0.8233,-0.8263,-0.8244,-0.8242,-0.8313,-0.8325,-0.8365,-0.8384,-0.8367,-0.847,-0.8451,-0.8415,-0.8357,-0.8462,-0.8503,-0.852,-0.8296,-0.8294,-0.8292,-0.8291,0,0,-0.8207,-0.8223,-0.8243,-0.8256,-0.8275,-0.8313,-0.8371,-0.8409,-0.8435,-0.8459,-0.8507,-0.8568,-0.8534,-0.8555,-0.8539,-0.8582,-0.8684,-0.854,-0.854,-0.8567,-0.8798,-0.8826,-0.8846,-0.8664,-0.8667,-0.8669,-0.8796,0,-0.8336,-0.8437,-0.8416,-0.8515,-0.856,-0.8515,-0.8566,-0.8583,-0.8581,-0.8618,-0.8616,-0.866,-0.8611,-0.8623,-0.8663,-0.8664,-0.8731,-0.8654,-0.8709,-0.8712,-0.8707,-0.8867,-0.8898,-0.9017,-0.8812,-0.8814,-0.8816,0,-0.8501,-0.8529,-0.8632,-0.8641,-0.866,-0.8706,-0.8737,-0.8774,-0.8791,-0.8786,-0.8808,-0.8783,-0.884,-0.8779,-0.8857,-0.8805,-0.8826,-0.8829,-0.8833,-0.8839,-0.8772,-0.8879,-0.9054,-0.9073,-0.8842,-0.884,-0.8838,0,-0.8623,-0.8687,-0.8756,-0.8769,-0.8782,-0.8815,-0.8822,-0.8836,-0.8859,-0.8887,-0.8901,-0.8935,-0.8955,-0.8981,-0.8965,-0.8922,-0.9046,-0.8984,-0.9044,-0.9045,-0.9075,-0.9074,-0.9257,-0.9086,-0.9086,-0.9085,-0.9085,0,-0.8771,-0.8836,-0.8811,-0.8855,-0.8925,-0.89,-0.8971,-0.8972,-0.8984,-0.9026,-0.8989,-0.903,-0.9006,-0.9044,-0.9032,-0.9098,-0.9107,-0.9105,-0.9101,-0.9109,-0.9109,-0.9124,-0.9116,-0.909,-0.9089,-0.9088,-0.9087,0,-0.8921,-0.8908,-0.898,-0.8985,-0.8988,-0.904,-0.9044,-0.9084,-0.9077,-0.9131,-0.9142,-0.9132,-0.9175,-0.916,-0.9207,-0.9198,-0.9283,-0.9268,-0.9277,-0.9274,-0.9335,-0.933,-0.9536,-0.9562,-0.9373,-0.9375,-0.9376,0,-0.9017,-0.9066,-0.9075,-0.91,-0.9109,-0.915,-0.9172,-0.9149,-0.9174,-0.9195,-0.9232,-0.9271,-0.9301,-0.9371,-0.9369,-0.9403,-0.9389,-0.9459,-0.9395,-0.94,-0.9391,-0.9389,-0.9394,-0.9473,-0.9475,-0.9477,-0.9478,0,-0.9189,-0.9178,-0.9213,-0.9244,-0.9271,-0.9295,-0.9315,-0.9338,-0.9314,-0.9344,-0.9387,-0.941,-0.9455,-0.9495,-0.9525,-0.9532,-0.9502,-0.9498,-0.9514,-0.9523,-0.9527,-0.9526,-0.9314,-0.9494,-0.9492,-0.9491,-0.949,-0.949,-0.9315,-0.9356,-0.9368,-0.9406,-0.9418,-0.9437,-0.9474,-0.9471,-0.9506,-0.954,-0.9523,-0.9573,-0.9586,-0.9623,-0.9634,-0.9672,-0.9645,-0.9668,-0.9674,-0.9681,-0.9689,-0.9519,-0.9677,-0.9677,-0.9676,-0.9676,-0.9675,0,-0.9486,-0.949,-0.9525,-0.9554,-0.9584,-0.955,-0.9569,-0.9597,-0.964,-0.9655,-0.9684,-0.9732,-0.9769,-0.9767,-0.9801,-0.9831,-0.9818,-0.9841,-0.984,-0.9842,-0.9711,-0.9694,-0.9851,-0.9851,-0.9851,-0.9851,-0.9851,-0.9851,-0.9578,-0.9644,-0.9635,-0.9706,-0.971,-0.9757,-0.9771,-0.9788,-0.9799,-0.9854,-0.9884,-0.9882,-0.9889,-0.9923,-0.9955,-0.9953,-0.9968,-0.9997,-0.999,-0.9868,-0.9851,-0.9834,-0.9819,-1.0,-1.0,-1.0118,-1.0119,-1.012]},{"header":{"parameterUnit":"m.s-1","parameterCategory":1,"la1":30.2991,"la2":30.254,"lo1":-89.0895,"lo2":-89.0444,"dy":0.0017,"dx":0.0017,"nx":28,"ny":28,"refTime":"2023-08-28T09:00:00:Z","depth":0,"parameterNumber":3,"parameterNumberName":"V-component_of_WINDS"},"data":[0,0,0,0,0,0,0,0,0,0,0,0,0,0,0,0,0,0,0,0,0,0,0,0,0,0,0,0,0,0,0,0,0,0,0,0,0,0,0,0,0,0,0,0,0,0,0,0,0,0,0,0,0,0,0,0,0,0,-4.7607,-4.7609,0,-4.7755,-4.7757,-4.7759,-4.7717,-4.7714,-4.7711,-4.7708,-4.7856,-4.7862,-4.7869,0,0,0,0,0,0,0,0,0,0,0,0,0,-4.7282,-4.7288,-4.7607,-4.7609,-4.7611,-4.7755,-4.7757,-4.7759,-4.7718,-4.7714,-4.771,-4.7707,-4.7853,-4.7861,-4.7869,0,0,0,0,0,0,0,0,0,0,0,0,0,-4.7426,-4.729,-4.7606,-4.7607,-4.7609,-4.7755,-4.7757,-4.776,-4.7718,-4.7714,-4.7709,-4.7705,-4.7851,-4.7861,-4.7871,-4.8023,0,0,-4.7901,-4.7906,0,0,0,0,0,0,0,0,-4.7418,-4.7438,-4.7605,-4.7608,-4.761,-4.7713,-4.7697,-4.7848,-4.772,-4.7677,-4.7708,-4.7703,-4.7812,-4.7825,-4.7862,-4.803,-4.8036,-4.7902,-4.7908,-4.7913,-4.7916,0,0,0,0,0,0,0,-4.7408,-4.7431,-4.7665,-4.7608,-4.761,-4.7599,-4.7614,-4.7725,-4.7767,-4.768,-4.7677,-4.7696,-4.7812,-4.7853,-4.7865,-4.8038,-4.7902,-4.7911,-4.7917,-4.7921,-4.8338,-4.8343,0,0,0,0,0,0,-4.7397,-4.7423,-4.7661,-4.767,-4.7501,-4.7608,-4.7626,-4.7684,-4.7766,-4.7774,-4.77,-4.7693,-4.7838,-4.7854,-4.787,-4.8054,-4.7913,-4.7922,-4.7928,-4.8333,-4.8339,-4.8344,0,0,0,0,0,0,-4.739,-4.7419,-4.7655,-4.7546,-4.7575,-4.7619,-4.7685,-4.769,-4.7731,-4.7781,-4.7788,-4.7734,-4.7835,-4.7856,-4.7986,-4.8058,-4.7927,-4.7936,-4.8327,-4.8335,-4.8342,-4.8422,0,0,0,0,0,0,-4.7381,-4.7417,-4.7476,-4.7548,-4.7581,-4.7769,-4.769,-4.7696,-4.7749,-4.7742,-4.7815,-4.7823,-4.7833,-4.7971,-4.7996,-4.807,-4.7944,-4.8321,-4.833,-4.8339,-4.8413,-4.8432,-4.8448,0,0,0,0,0,-4.737,-4.7492,-4.7479,-4.7508,-4.7657,-4.7773,-4.7792,-4.7803,-4.7755,-4.7814,-4.7846,-4.782,-4.8047,-4.7984,-4.8012,-4.809,-4.8316,-4.8328,-4.8339,-4.8406,-4.8428,-4.8447,0,0,0,0,0,0,-4.7426,-4.7501,-4.7488,-4.7638,-4.77,-4.7766,-4.7841,-4.7826,-4.7902,-4.7893,-4.7901,-4.7918,-4.805,-4.8083,-4.8013,-4.8242,-4.8174,-4.8191,-4.8216,-4.8237,-4.8254,-4.8243,-4.7952,0,0,0,0,0,-4.7456,-4.7546,-4.7607,-4.7732,-4.7764,-4.7798,-4.7849,-4.7852,-4.7916,-4.7941,-4.7983,-4.8045,-4.813,-4.8185,-4.8266,-4.8418,-4.8433,-4.8486,-4.8503,-4.8516,-4.8531,-4.8613,-4.8637,-4.8381,-4.8381,-4.8381,0,0,-4.7519,-4.7571,-4.7627,-4.7745,-4.7793,-4.7885,-4.782,-4.792,-4.7987,-4.7956,-4.8081,-4.8114,-4.8183,-4.8324,-4.8389,-4.8356,-4.8605,-4.8531,-4.8541,-4.8549,-4.8627,-4.8651,-4.8673,-4.8389,-4.8388,-4.8386,0,0,-4.7679,-4.7728,-4.7839,-4.7889,-4.7964,-4.7985,-4.8012,-4.8081,-4.8102,-4.8228,-4.8207,-4.8286,-4.8432,-4.8483,-4.8527,-4.8707,-4.8686,-4.8733,-4.8822,-4.8902,-4.8922,-4.894,-4.9003,-4.9026,-4.8748,-4.8748,-4.8748,0,-4.7747,-4.7886,-4.7897,-4.7999,-4.8051,-4.8029,-4.8139,-4.8187,-4.8283,-4.8319,-4.8282,-4.8465,-4.851,-4.8662,-4.8706,-4.8743,-4.8773,-4.8725,-4.8918,-4.8937,-4.8953,-4.9014,-4.9038,-4.8753,-4.8753,-4.8752,-4.8752,0,-4.7965,-4.8061,-4.8141,-4.8237,-4.8298,-4.8404,-4.8429,-4.8489,-4.8487,-4.8512,-4.864,-4.8694,-4.8785,-4.8821,-4.8819,-4.8974,-4.8951,-4.8916,-4.8848,-4.8983,-4.904,-4.9063,-4.8761,-4.8759,-4.8757,-4.8756,0,0,-4.8164,-4.8266,-4.8295,-4.8338,-4.8419,-4.8493,-4.8597,-4.8688,-4.8739,-4.8806,-4.8893,-4.9018,-4.8986,-4.9037,-4.904,-4.9111,-4.9249,-4.9067,-4.9069,-4.9098,-4.9421,-4.9447,-4.9473,-4.9235,-4.924,-4.9244,-4.9415,0,-4.8332,-4.8517,-4.853,-4.8697,-4.8786,-4.8766,-4.8856,-4.8915,-4.8941,-4.9019,-4.9047,-4.9135,-4.9087,-4.9117,-4.9186,-4.9218,-4.9314,-4.9205,-4.9315,-4.9319,-4.9298,-4.9503,-4.9531,-4.969,-4.9438,-4.9441,-4.9444,0,-4.8551,-4.8628,-4.8804,-4.8872,-4.891,-4.8992,-4.9076,-4.9151,-4.9216,-4.923,-4.9287,-4.9281,-4.9386,-4.9315,-4.9459,-4.9386,-4.9431,-4.9453,-4.946,-4.947,-4.9389,-4.9518,-4.9741,-4.9765,-4.948,-4.9477,-4.9474,0,-4.8679,-4.8825,-4.8949,-4.8987,-4.907,-4.9128,-4.9165,-4.9226,-4.928,-4.9353,-4.9388,-4.9471,-4.9517,-4.9581,-4.9597,-4.9544,-4.9741,-4.9671,-4.9754,-4.9754,-4.9796,-4.9793,-5.0029,-4.9827,-4.9826,-4.9826,-4.9826,0,-4.8864,-4.8972,-4.9008,-4.9084,-4.9205,-4.9218,-4.9336,-4.9369,-4.9424,-4.9505,-4.9492,-4.9568,-4.9585,-4.9664,-4.9677,-4.9794,-4.9815,-4.9828,-4.983,-4.9829,-4.9828,-4.9859,-4.9848,-4.9832,-4.9831,-4.983,-4.9829,0,-4.9026,-4.9055,-4.9189,-4.9257,-4.9277,-4.9362,-4.942,-4.9492,-4.9517,-4.962,-4.9645,-4.9683,-4.9775,-4.9798,-4.9908,-4.9916,-5.0055,-5.0046,-5.0033,-5.0033,-5.0114,-5.0106,-5.0378,-5.0414,-5.0188,-5.019,-5.0192,0,-4.9142,-4.9226,-4.9303,-4.9358,-4.9398,-4.9486,-4.9541,-4.9556,-4.9614,-4.9695,-4.9758,-4.9849,-4.9923,-5.0071,-5.0108,-5.0191,-5.0184,-5.0274,-5.0197,-5.0193,-5.0185,-5.018,-5.0188,-5.0288,-5.0291,-5.0293,-5.0294,0,-4.9345,-4.9355,-4.9436,-4.9523,-4.959,-4.9658,-4.9723,-4.9768,-4.9792,-4.9857,-4.9953,-5.001,-5.0123,-5.0213,-5.0297,-5.0333,-5.0318,-5.0318,-5.0342,-5.0341,-5.033,-5.0337,-5.0073,-5.0312,-5.031,-5.0309,-5.0308,-5.0307,-4.9487,-4.956,-4.9627,-4.9717,-4.9769,-4.983,-4.9902,-4.9936,-5.0016,-5.011,-5.0114,-5.0218,-5.028,-5.0392,-5.0433,-5.0513,-5.0485,-5.052,-5.0528,-5.0536,-5.0543,-5.0318,-5.0528,-5.0528,-5.0527,-5.0527,-5.0527,0,-4.9689,-4.9731,-4.9814,-4.9907,-4.9978,-4.9959,-5.003,-5.009,-5.0182,-5.0243,-5.0316,-5.0425,-5.0513,-5.0556,-5.0643,-5.0698,-5.0693,-5.072,-5.0716,-5.0724,-5.0563,-5.0534,-5.0723,-5.0723,-5.0723,-5.0723,-5.0723,-5.0723,-4.9802,-4.9925,-4.9943,-5.009,-5.013,-5.0233,-5.0275,-5.0331,-5.038,-5.0503,-5.0576,-5.0605,-5.0658,-5.0748,-5.0827,-5.0838,-5.087,-5.0901,-5.0907,-5.0756,-5.0736,-5.0717,-5.0689,-5.0908,-5.0908,-5.1061,-5.1063,-5.1064]}]]